ABS-2A (MONGOLSAT-1) (41588 NORAD) Tracking and Keplerian Element Data

This shows tracking and keplerian element data for the satellite.

Feedback or suggestion? Click here.




ElementValue
Catalog41588
NameABS-2A (MONGOLSAT-1)
Epoch Orbit1019
Epoch Day80.88470883
Epoch Year2019
RAAN191.7558
Inclination0.012
Eccentricity0.0002306
Argument of Perigee102.3721
Mean Anonmoly278.153
Mean Motion1.00271
Decay Rate-1.09E-06
L11 41588U 16038A 19080.88470883 -.00000109 00000-0 00000-0 0 9999
L22 41588 0.0120 191.7558 0002306 102.3721 278.1530 1.00271000 10192

Live tracking and technical data element details for ABS-2A (MONGOLSAT-1) (NORAD 41588). ABS-2A (MONGOLSAT-1) can be tracked NOW for your location showing map with azimuth and elevation plus other details from your city location.

Track the satellite on the map from your city or location and see movement details for azimuth, elevation, latitude, longitude, range, height, and movement on the map or in text.







IsCatalogInMostPopularTable: catalog: 41588, numindb: 224
Update: records affected: 1



GetName: 41588 ABS-2A (MONGOLSAT-1)

Hit Count: updated at: Sat, 23 Mar 2019 03:15:11 GMT